Time,TemperatureF,DewpointF,PressureIn,WindDirection,WindDirectionDegrees,WindSpeedMPH,WindSpeedGustMPH,Humidity,HourlyPrecipIn,Conditions,Clouds,dailyrainin,SolarRadiationWatts/m^2,SoftwareType,DateUTC
2013-04-15 00:02:00,60.0,48.0,-100.00,SE,135,4.0,15.0,64,0.00,,,-99.99,0.000000,,2013-04-15 05:02:00,
2013-04-15 00:33:00,60.0,49.0,-100.00,SE,142,4.0,8.0,66,0.00,,,0.00,0.000000,,2013-04-15 05:33:00,
2013-04-15 00:43:00,60.0,49.0,-100.00,SE,142,4.0,8.0,66,0.00,,,0.00,0.000000,,2013-04-15 05:43:00,
2013-04-15 00:53:00,60.0,49.0,-100.00,SE,142,4.0,8.0,66,0.00,,,0.00,0.000000,,2013-04-15 05:53:00,
2013-04-15 01:02:00,60.0,49.0,-100.00,SE,142,4.0,8.0,66,0.00,,,0.00,0.000000,,2013-04-15 06:02:00,
2013-04-15 01:34:00,60.0,50.0,-100.00,SSE,164,2.0,8.0,69,0.00,,,0.00,0.000000,,2013-04-15 06:34:00,
2013-04-15 01:43:00,60.0,50.0,-100.00,SSE,164,2.0,8.0,69,0.00,,,0.00,0.000000,,2013-04-15 06:43:00,
2013-04-15 01:52:00,60.0,50.0,-100.00,SSE,164,2.0,8.0,69,0.00,,,0.00,0.000000,,2013-04-15 06:52:00,
2013-04-15 02:02:00,60.0,50.0,-100.00,SSE,164,2.0,8.0,69,0.00,,,0.00,0.000000,,2013-04-15 07:02:00,
2013-04-15 02:43:00,60.0,50.0,-100.00,South,180,5.0,10.0,69,0.00,,,0.00,0.000000,,2013-04-15 07:43:00,
2013-04-15 02:54:00,60.0,50.0,-100.00,South,180,5.0,10.0,69,0.00,,,0.00,0.000000,,2013-04-15 07:54:00,
2013-04-15 03:02:00,60.0,50.0,-100.00,South,180,5.0,10.0,69,0.00,,,0.00,0.000000,,2013-04-15 08:02:00,
2013-04-15 03:34:00,58.0,50.0,-100.00,SSE,168,4.0,10.0,74,0.00,,,0.00,0.000000,,2013-04-15 08:34:00,
2013-04-15 03:43:00,58.0,50.0,-100.00,SSE,168,4.0,10.0,74,0.00,,,0.00,0.000000,,2013-04-15 08:43:00,
2013-04-15 03:52:00,58.0,50.0,-100.00,SSE,168,4.0,10.0,74,0.00,,,0.00,0.000000,,2013-04-15 08:52:00,
2013-04-15 04:02:00,58.0,50.0,-100.00,SSE,168,4.0,10.0,74,0.00,,,0.00,0.000000,,2013-04-15 09:02:00,
2013-04-15 04:33:00,58.0,51.0,-100.00,SSE,156,3.0,8.0,78,0.00,,,0.00,0.000000,,2013-04-15 09:33:00,
2013-04-15 04:43:00,58.0,51.0,-100.00,SSE,156,3.0,8.0,78,0.00,,,0.00,0.000000,,2013-04-15 09:43:00,
2013-04-15 04:53:00,58.0,51.0,-100.00,SSE,156,3.0,8.0,78,0.00,,,0.00,0.000000,,2013-04-15 09:53:00,
2013-04-15 05:02:00,58.0,51.0,-100.00,SSE,156,3.0,8.0,78,0.00,,,0.00,0.000000,,2013-04-15 10:02:00,
2013-04-15 05:33:00,58.0,52.0,-100.00,South,178,4.0,9.0,79,0.00,,,0.00,0.000000,,2013-04-15 10:33:00,
2013-04-15 05:42:00,58.0,52.0,-100.00,South,178,4.0,9.0,79,0.00,,,0.00,0.000000,,2013-04-15 10:42:00,
2013-04-15 05:53:00,58.0,52.0,-100.00,South,178,4.0,9.0,79,0.00,,,0.00,0.000000,,2013-04-15 10:53:00,
2013-04-15 06:03:00,58.0,52.0,-100.00,South,178,4.0,9.0,79,0.00,,,0.00,0.000000,,2013-04-15 11:03:00,
2013-04-15 06:33:00,58.0,52.0,-100.00,South,174,5.0,10.0,80,0.00,,,0.00,0.000000,,2013-04-15 11:33:00,
2013-04-15 06:43:00,58.0,52.0,-100.00,South,174,5.0,10.0,80,0.00,,,0.00,0.000000,,2013-04-15 11:43:00,
2013-04-15 06:54:00,58.0,52.0,-100.00,South,174,5.0,10.0,80,0.00,,,0.00,0.000000,,2013-04-15 11:54:00,
2013-04-15 07:04:00,58.0,52.0,-100.00,South,174,5.0,10.0,80,0.00,,,0.00,0.000000,,2013-04-15 12:04:00,
2013-04-15 07:34:00,58.0,52.0,-100.00,South,187,4.0,10.0,81,0.00,,,0.00,12.000000,,2013-04-15 12:34:00,
2013-04-15 07:43:00,58.0,52.0,-100.00,South,187,4.0,10.0,81,0.00,,,0.00,12.000000,,2013-04-15 12:43:00,
2013-04-15 07:53:00,58.0,52.0,-100.00,South,187,4.0,10.0,81,0.00,,,0.00,12.000000,,2013-04-15 12:53:00,
2013-04-15 08:04:00,58.0,52.0,-100.00,South,187,4.0,10.0,81,0.00,,,0.00,12.000000,,2013-04-15 13:04:00,
2013-04-15 08:34:00,60.0,54.0,-100.00,SSE,156,3.0,8.0,80,0.00,,,0.00,66.000000,,2013-04-15 13:34:00,
2013-04-15 08:43:00,60.0,54.0,-100.00,SSE,156,3.0,8.0,80,0.00,,,0.00,66.000000,,2013-04-15 13:43:00,
2013-04-15 08:54:00,60.0,54.0,-100.00,SSE,156,3.0,8.0,80,0.00,,,0.00,66.000000,,2013-04-15 13:54:00,
2013-04-15 09:05:00,60.0,54.0,-100.00,SSE,156,3.0,8.0,80,0.00,,,0.00,66.000000,,2013-04-15 14:05:00,
2013-04-15 09:34:00,62.0,54.0,-100.00,SSE,160,5.0,10.0,76,0.00,,,0.00,215.000000,,2013-04-15 14:34:00,
2013-04-15 09:44:00,62.0,54.0,-100.00,SSE,160,5.0,10.0,76,0.00,,,0.00,215.000000,,2013-04-15 14:44:00,
2013-04-15 09:55:00,62.0,54.0,-100.00,SSE,160,5.0,10.0,76,0.00,,,0.00,215.000000,,2013-04-15 14:55:00,
2013-04-15 10:03:00,62.0,54.0,-100.00,SSE,160,5.0,10.0,76,0.00,,,0.00,215.000000,,2013-04-15 15:03:00,
2013-04-15 10:37:00,65.0,56.0,-100.00,SSW,209,4.0,9.0,73,0.00,,,0.00,297.000000,,2013-04-15 15:37:00,
2013-04-15 10:45:00,65.0,56.0,-100.00,SSW,209,4.0,9.0,73,0.00,,,0.00,297.000000,,2013-04-15 15:45:00,
2013-04-15 10:55:00,65.0,56.0,-100.00,SSW,209,4.0,9.0,73,0.00,,,0.00,297.000000,,2013-04-15 15:55:00,
2013-04-15 11:04:00,65.0,56.0,-100.00,SSW,209,4.0,9.0,73,0.00,,,0.00,297.000000,,2013-04-15 16:04:00,
2013-04-15 11:34:00,66.0,57.0,-100.00,SW,227,4.0,10.0,72,0.00,,,0.00,313.000000,,2013-04-15 16:34:00,
2013-04-15 11:44:00,66.0,57.0,-100.00,SW,227,4.0,10.0,72,0.00,,,0.00,313.000000,,2013-04-15 16:44:00,
2013-04-15 11:54:00,66.0,57.0,-100.00,SW,227,4.0,10.0,72,0.00,,,0.00,313.000000,,2013-04-15 16:54:00,
2013-04-15 12:03:00,66.0,57.0,-100.00,SW,227,4.0,10.0,72,0.00,,,0.00,313.000000,,2013-04-15 17:03:00,
2013-04-15 12:33:00,72.0,59.0,-100.00,South,189,4.0,8.0,63,0.00,,,0.00,657.000000,,2013-04-15 17:33:00,
2013-04-15 12:43:00,72.0,59.0,-100.00,South,189,4.0,8.0,63,0.00,,,0.00,657.000000,,2013-04-15 17:43:00,
2013-04-15 12:52:00,72.0,59.0,-100.00,South,189,4.0,8.0,63,0.00,,,0.00,657.000000,,2013-04-15 17:52:00,
2013-04-15 13:03:00,72.0,59.0,-100.00,South,189,4.0,8.0,63,0.00,,,0.00,657.000000,,2013-04-15 18:03:00,
2013-04-15 13:33:00,73.0,59.0,-100.00,South,170,5.0,11.0,61,0.00,,,0.00,700.000000,,2013-04-15 18:33:00,
2013-04-15 13:42:00,73.0,59.0,-100.00,South,170,5.0,11.0,61,0.00,,,0.00,700.000000,,2013-04-15 18:42:00,
2013-04-15 13:52:00,73.0,59.0,-100.00,South,170,5.0,11.0,61,0.00,,,0.00,700.000000,,2013-04-15 18:52:00,
2013-04-15 14:02:00,73.0,59.0,-100.00,South,170,5.0,11.0,61,0.00,,,0.00,700.000000,,2013-04-15 19:02:00,
2013-04-15 14:39:00,76.0,59.0,-100.00,South,184,6.0,15.0,55,0.00,,,0.00,729.000000,,2013-04-15 19:39:00,
2013-04-15 14:58:00,76.0,59.0,-100.00,South,184,6.0,15.0,55,0.00,,,0.00,729.000000,,2013-04-15 19:58:00,
2013-04-15 15:02:00,76.0,59.0,-100.00,South,184,6.0,15.0,55,0.00,,,0.00,729.000000,,2013-04-15 20:02:00,
2013-04-15 15:32:00,79.0,59.0,-100.00,South,183,6.0,16.0,51,0.00,,,0.00,888.000000,,2013-04-15 20:32:00,
2013-04-15 15:42:00,79.0,59.0,-100.00,South,183,6.0,16.0,51,0.00,,,0.00,888.000000,,2013-04-15 20:42:00,
2013-04-15 15:52:00,79.0,59.0,-100.00,South,183,6.0,16.0,51,0.00,,,0.00,888.000000,,2013-04-15 20:52:00,
2013-04-15 16:02:00,79.0,59.0,-100.00,South,183,6.0,16.0,51,0.00,,,0.00,888.000000,,2013-04-15 21:02:00,
2013-04-15 16:33:00,78.0,57.0,-100.00,SSW,199,7.0,16.0,49,0.00,,,0.00,638.000000,,2013-04-15 21:33:00,
2013-04-15 16:43:00,78.0,57.0,-100.00,SSW,199,7.0,16.0,49,0.00,,,0.00,638.000000,,2013-04-15 21:43:00,
2013-04-15 16:53:00,78.0,57.0,-100.00,SSW,199,7.0,16.0,49,0.00,,,0.00,638.000000,,2013-04-15 21:53:00,
2013-04-15 17:02:00,78.0,57.0,-100.00,SSW,199,7.0,16.0,49,0.00,,,0.00,638.000000,,2013-04-15 22:02:00,
2013-04-15 17:33:00,80.0,58.0,-100.00,SSW,199,6.0,16.0,47,0.00,,,0.00,594.000000,,2013-04-15 22:33:00,
2013-04-15 17:42:00,80.0,58.0,-100.00,SSW,199,6.0,16.0,47,0.00,,,0.00,594.000000,,2013-04-15 22:42:00,
2013-04-15 17:52:00,80.0,58.0,-100.00,SSW,199,6.0,16.0,47,0.00,,,0.00,594.000000,,2013-04-15 22:52:00,
2013-04-15 18:02:00,80.0,58.0,-100.00,SSW,199,6.0,16.0,47,0.00,,,0.00,594.000000,,2013-04-15 23:02:00,
2013-04-15 18:32:00,79.0,58.0,-100.00,South,171,6.0,15.0,49,0.00,,,0.00,391.000000,,2013-04-15 23:32:00,
2013-04-15 18:42:00,79.0,58.0,-100.00,South,171,6.0,15.0,49,0.00,,,0.00,391.000000,,2013-04-15 23:42:00,
2013-04-15 18:52:00,79.0,58.0,-100.00,South,171,6.0,15.0,49,0.00,,,0.00,391.000000,,2013-04-15 23:52:00,
2013-04-15 19:02:00,79.0,58.0,-100.00,South,171,6.0,15.0,49,0.00,,,0.00,391.000000,,2013-04-16 00:02:00,
2013-04-15 20:32:00,73.0,57.0,-100.00,SSE,163,2.0,8.0,58,-99.99,,,0.00,8.000000,,2013-04-16 01:32:00,
2013-04-15 20:42:00,73.0,57.0,-100.00,SSE,163,2.0,8.0,58,-99.99,,,0.00,8.000000,,2013-04-16 01:42:00,
2013-04-15 20:52:00,73.0,57.0,-100.00,SSE,163,2.0,8.0,58,-99.99,,,0.00,8.000000,,2013-04-16 01:52:00,
2013-04-15 21:02:00,73.0,57.0,-100.00,SSE,163,2.0,8.0,58,-99.99,,,0.00,8.000000,,2013-04-16 02:02:00,
2013-04-15 21:32:00,70.0,58.0,-100.00,South,170,2.0,5.0,65,0.00,,,0.00,0.000000,,2013-04-16 02:32:00,
2013-04-15 21:42:00,70.0,58.0,-100.00,South,170,2.0,5.0,65,0.00,,,0.00,0.000000,,2013-04-16 02:42:00,
2013-04-15 21:52:00,70.0,58.0,-100.00,South,170,2.0,5.0,65,0.00,,,0.00,0.000000,,2013-04-16 02:52:00,
2013-04-15 22:02:00,70.0,58.0,-100.00,South,170,2.0,5.0,65,0.00,,,0.00,0.000000,,2013-04-16 03:02:00,
2013-04-15 22:33:00,71.0,57.0,-100.00,SSW,194,4.0,8.0,62,0.00,,,0.00,0.000000,,2013-04-16 03:33:00,
2013-04-15 22:43:00,71.0,57.0,-100.00,SSW,194,4.0,8.0,62,0.00,,,0.00,0.000000,,2013-04-16 03:43:00,
2013-04-15 22:53:00,71.0,57.0,-100.00,SSW,194,4.0,8.0,62,0.00,,,0.00,0.000000,,2013-04-16 03:53:00,
2013-04-15 23:03:00,71.0,57.0,-100.00,SSW,194,4.0,8.0,62,0.00,,,0.00,0.000000,,2013-04-16 04:03:00,
2013-04-15 23:33:00,70.0,58.0,-100.00,South,188,5.0,8.0,65,0.00,,,0.00,0.000000,,2013-04-16 04:33:00,
2013-04-15 23:42:00,70.0,58.0,-100.00,South,188,5.0,8.0,65,0.00,,,0.00,0.000000,,2013-04-16 04:42:00,
2013-04-15 23:53:00,70.0,58.0,-100.00,South,188,5.0,8.0,65,0.00,,,0.00,0.000000,,2013-04-16 04:53:00,